Location: Bartlow
(52.0833°N, 0.3167°E)
Time: 05:31:42
(UTC+00:00)

Cosmos 2266 Rocket - Visible Passes

Search period start: 16 April 2024 00:00
Search period end: 26 April 2024 00:00
Orbit: 933 x 1008 km, 82.9° (Epoch: 15 April)

Date Brightness Start Highest point End Pass type
(mag) Time Alt. Az. Time Alt. Az. Time Alt. Az.
16 Apr 6.4 02:34:30 10° ESE 02:38:32 19° ENE 02:42:33 10° NE visible
16 Apr 4.0 04:16:56 10° S 04:23:01 87° W 04:29:06 10° N visible
17 Apr 5.7 02:56:54 10° SE 03:02:03 30° E 03:07:11 10° NNE visible
18 Apr 4.9 03:19:56 10° SSE 03:25:42 48° E 03:31:28 10° NNE visible
19 Apr 6.4 02:01:57 10° ESE 02:05:13 15° ENE 02:08:30 10° NE visible
19 Apr 4.1 03:43:27 10° S 03:49:29 78° E 03:55:32 10° NNE visible
20 Apr 5.9 02:23:55 10° SE 02:28:40 25° E 02:33:25 10° NNE visible
20 Apr 4.0 04:07:25 10° SSW 04:13:26 67° WNW 04:19:28 10° N visible
21 Apr 5.2 02:46:42 10° SSE 02:52:15 39° E 02:57:49 10° NNE visible
22 Apr 6.5 01:29:46 10° E 01:31:56 12° ENE 01:34:07 10° NE visible
22 Apr 4.3 03:10:02 10° S 03:15:59 64° E 03:21:58 10° NNE visible
23 Apr 6.1 01:51:05 10° SE 01:55:19 20° E 01:59:32 10° NE visible
23 Apr 3.9 03:33:49 10° SSW 03:39:51 81° W 03:45:57 10° N visible
24 Apr 5.4 02:13:35 10° SSE 02:18:50 32° E 02:24:06 10° NNE visible
24 Apr 4.2 03:58:02 10° SSW 04:03:54 51° WNW 04:09:48 10° N visible
25 Apr 4.6 02:36:41 10° SSE 02:42:31 52° E 02:48:21 10° NNE visible
